Regional Weather Roundup
Issued by NWS Goodland, KS

Home | Current Version | Previous Version | Graphics & Text | Print | Product List | Glossary Off
Versions: 1 2 3 4 5 6 7 8 9 10 11 12 13 14 15 16 17 18 19 20 21 22 23 24 25 26 27 28 29 30 31 32 33 34 35 36 37 38 39 40 41 42 43 44 45 46 47 48 49 50

000
ASUS43 KGLD 270959
RWRGLD

GOODLAND FORECAST AREA HOURLY WEATHER ROUNDUP
NATIONAL WEATHER SERVICE GOODLAND KS
400 AM MDT MON MAR 27 2017

...OFFICIAL OBSERVATIONS...

CITY           SKY/WX    TMP DP  RH WIND       PRES   REMARKS
GOODLAND KS    CLEAR     34  33  96 W8        29.92S
HILL CITY KS   MOCLDY    36  36 100 CALM      29.95R FOG
IMPERIAL NEB   CLEAR     36  32  85 NW8       29.91S
MCCOOK NEB     CLEAR     34  33  96 CALM      29.92F
AKRON CO       CLEAR     33  30  88 W10       29.93F
BURLINGTON CO  CLEAR     35  33  92 NW8       29.93F
LIMON CO       CLEAR     31  31 100 W7        29.96S
$$

...UNOFFICIAL OBSERVATIONS...

CITY           SKY/WX    TMP DP  RH WIND       PRES   REMARKS
LENORA KS        N/A     36  32  85 CALM        N/A
NORTON KS      CLEAR     36  34  93 CALM      29.93R
SHARON SPRINGS   N/A     37  36  97 SW8         N/A
TRENTON NEB      N/A     35  32  89 CALM        N/A
YUMA CO        FAIR      32  30  93 W7        29.92F
$$



USA.gov is the U.S. government's official web portal to all federal, state and local government web resources and services.